Change something in my Progressive insurance?

DahlgaardTierney4339 | 2022.02.20 12:46 | 조회 6
"I would like to buy a new scooterInsurance payments to get a vehicle?
"Lets say a 1995 Corvette using a V8 5.7 Liter Motor? I'd like to obtain a brokendown one as a project autoCan police tell if you have insurance in NJ by reading your license plate?
How to locate an insurance that is cheap-but excellent?
"I am buying a Small Cooper S which can be turbo charged if it will create my insurance costs riseInsurance costs for 2003 F150?
"Im so confused at this time. In the past 2 weeks i have been performing my research on purchasing a fresh 2011 CBR600RR
twitter facebook me2day 요즘
1,427,578개(29635/71379페이지)
LECTURE
번호 제목 글쓴이 조회 날짜
834898 Approaches To Cheat In On the internet V HarveyGlass1525 12 2022.02.20 13:02
834897 9 Best Practices For Human Hair Wigs SallingKold1707 51 2022.02.20 13:01
834896 Trey Poker Computer Card Game: Double Th BrowneHubbard7107 8 2022.02.20 13:01
834895 See For The Most Effective Ideas About P HendrixSehested3618 6 2022.02.20 13:01
834894 Fewer Calories, More Train For Weight Lo AdairWilkinson1016 11 2022.02.20 13:01
834893 If You Don't Minecraft Server Address No DjurhuusSkov5827 14 2022.02.20 13:00
834892 Lịch Thi Đấu Bóng Đá Cup C1 Mùa Giải 202 MelchiorsenHolland4495 16 2022.02.20 13:00
834891 Online Slots Rules--There Are Only Three PridgenCantu5199 22 2022.02.20 13:00
834890 Black Camouflaged Poker Spade T-shirt cr KeithShoemaker0522 11 2022.02.20 13:00
834889 Have Questions About Chiropractic care C McClellanMahmoud5058 13 2022.02.20 12:59
834888 Báo Bóng Đá DiazFoldager3199 9 2022.02.20 12:59
834887 It Is Our Job To Coach Yourself On Web M BrinkValentine2850 6 2022.02.20 12:59
834886 79 Lat Temu Rozpoczęła Się II Wojna świa 사진 BrandstrupAllen3833 8 2022.02.20 12:59
834885 Bet On Sports - How To Place Bets On Spo HelboHarboe4248 12 2022.02.20 12:59
834884 Boost Your Human Hair Wigs With The Foll EngelSchmidt2892 7 2022.02.20 12:59
834883 What you ought to Know When Searching Fo AxelsenChristiansen9282 10 2022.02.20 12:58
834882 Chi Tiết Về 90ptv 90 Phút Television Trự WindButcher6202 16 2022.02.20 12:58
834881 Using Blackjack Strategy Card To Get - T KellerKhan7121 7 2022.02.20 12:58
834880 If You Wish Speedy Recommendations Regar PilegaardHarper4305 11 2022.02.20 12:58
834879 Learn How To Win Online Poker JosephsenPrince1014 15 2022.02.20 12:58